Location: Shenandoah County Park
(38.9356°N, 78.4524°W)
Time: 13:59:36
(UTC-05:00)

Vanguard 2 Rocket - Pass Details

Date: 08 December 2023
Orbit: 555 x 3309 km, 32.9° (Epoch: 03 March)

Event Time Altitude Azimuth Distance (km) Brightness Sun altitude
Rises 20:26:45 0° 283° (WNW) 7,296 12.3 -41.1°
Reaches altitude 10° 20:32:40 10° 274° (W) 6,229 11.8 -42.2°
Maximum altitude 20:47:49 30° 224° (SW) 4,156 10.3 -45.2°
Enters shadow 20:56:12 18° 181° (S) 4,285 10.2 -46.8°
Drops below altitude 10° 20:59:17 10° 169° (S) 4,654 - -47.4°
Sets 21:02:59 0° 158° (SSE) 5,272 - -48.1°
